Home   Weather   19°22'N, 99°10'W   Past weeks
Flag for Mexico

Past Weather in 19°22'N, 99°10'W, Mexico — Yesterday and Last 2 Weeks

Now
59 °F

Light rain. Mostly cloudy.


Feels Like: 58 °F
Forecast: 70 / 57 °F
Wind: 6 mph from Southwest

Location: Mexico City / Licenci

Current Time: Jul 24, 2019 at 4:42:16 am

Latest Report: Jul 24, 2019 at 4:10 am


Visibility: 8 mi

Pressure: 30.39 "Hg

Humidity: 77%

Dew Point: 52 °F

Location of 19°22'N, 99°10'WLocation

Past Weather in 19°22'N, 99°10'W — Graph

°F

19°22'N, 99°10'W Temperature Yesterday

Maximum temperature yesterday: 73 °F (at 4:20 pm)
Minimum temperature yesterday: 55 °F (at 6:50 am)
Average temperature yesterday: 64 °F

High & Low Weather Summary for the Past Weeks

 TemperatureHumidityPressure
High79 °F (Jul 9, 4:38 pm)100% (Jul 13, 6:52 am)30.43 "Hg (Jul 13, 6:52 am)
Low55 °F (Jul 9, 4:43 am)26% (Jul 16, 3:46 pm)29.69 "Hg (Jul 13, 3:46 pm)
Average64 °F65%30.21 "Hg
* Reported Jul 9 2:40 am — Jul 24 2:45 am, 19°22'N, 99°10'W. Weather by CustomWeather, © 2019

Note: Actual official high and low records may vary slightly from our data, if they occured in-between our weather recording intervals... More about our weather records

Advertising

19°22'N, 99°10'W Weather History for the Previous 24 Hours

Scroll right to see more
 ConditionsComfort  
Time TempWeatherWind HumidityBarometerVisibility
2:45 am
Wed, Jul 24
59 °FMostly cloudy.2 mph77%30.40 "Hg10 mi
1:45 am59 °FPartly cloudy.12 mph82%30.41 "Hg8 mi
1:11 am61 °FPartly cloudy.12 mph83%30.41 "Hg6 mi
12:50 am61 °FLight rain. Partly cloudy.6 mph77%29.93 "Hg5 mi
12:21 am61 °FLight rain. Mostly cloudy.5 mph77%30.43 "Hg8 mi
11:45 pm
Tue, Jul 23
61 °FMostly cloudy.7 mph77%30.43 "Hg9 mi
10:46 pm61 °FMostly cloudy.9 mph77%30.41 "Hg8 mi
10:08 pm61 °FMostly cloudy.6 mph77%30.39 "Hg7 mi
9:53 pm61 °FLight rain. Mostly cloudy.9 mph77%29.96 "Hg7 mi
9:18 pm61 °FLight rain. Mostly cloudy.12 mph77%30.36 "Hg5 mi
8:46 pm61 °FThunderstorms. Mostly cloudy.9 mph77%30.36 "Hg4 mi
8:12 pm59 °FThunderstorms. Mostly cloudy.7 mph88%30.34 "Hg4 mi
7:45 pm57 °FStrong thunderstorms. Mostly cloudy.20 mph88%30.33 "Hg2 mi
6:51 pm66 °FThunderstorms. Mostly cloudy.13 mph60%29.74 "Hg5 mi
6:34 pm70 °FRain. Mostly cloudy.13 mph50%30.28 "Hg5 mi
5:41 pm72 °FPartly sunny.12 mph41%30.27 "Hg7 mi
4:45 pm73 °FPartly sunny.15 mph44%30.28 "Hg7 mi
4:20 pm73 °FPartly sunny.7 mph44%30.29 "Hg6 mi
2:43 pm72 °FPartly sunny.8 mph38%30.33 "Hg6 mi
1:46 pm72 °FPartly sunny.9 mph44%30.35 "Hg7 mi
12:43 pm70 °FScattered clouds.10 mph46%29.87 "Hg6 mi
11:40 am68 °FScattered clouds.5 mph53%30.40 "Hg6 mi
10:44 am66 °FScattered clouds.No wind56%30.41 "Hg5 mi
10:07 am64 °FPassing clouds.2 mph64%30.41 "Hg6 mi
8:42 am59 °FPassing clouds.5 mph77%30.41 "Hg6 mi
7:51 am55 °FBroken clouds.7 mph82%30.38 "Hg8 mi
6:50 am55 °FPassing clouds.6 mph82%29.77 "Hg8 mi
5:44 am57 °FPassing clouds.6 mph77%30.36 "Hg10 mi
4:44 am59 °FPassing clouds.5 mph72%30.35 "Hg10 mi
Weather by CustomWeather, © 2019

See weather overview